Regional Weather Roundup
Issued by NWS

Home | Current Version | Previous Version | Graphics & Text | Print | Product List | Glossary On
Versions: 1 2 3 4 5 6 7 8 9 10 11 12 13 14 15 16 17 18 19 20 21 22 23 24 25 26 27 28 29 30 31 32 33 34 35 36 37 38 39 40 41 42 43 44 45 46 47 48 49 50
000
ASUS43 KOAX 172102
RWRNE

WEATHER ROUNDUP FOR NEBRASKA
NATIONAL WEATHER SERVICE OMAHA NE
300 PM CST WED DEC 17 2014

NOTES: SATELLITE DATA IS BEING USED TO AUGMENT CLOUD COVER ABOVE
       12000 FEET.
       "FAIR" INDICATES FEW OR NO CLOUDS BELOW 12,000 FEET WITH NO
       SIGNIFICANT WEATHER AND/OR OBSTRUCTIONS TO VISIBILITY.

  * THESE STATIONS DO NOT REPORT WEATHER SUCH AS RAIN...SNOW OR FOG.

NEZ001>004-019>022-054>056-172200-
NEBRASKA PANHANDLE

CITY           SKY/WX    TMP DP  RH WIND       PRES   REMARKS
SCOTTSBLUFF    MOSUNNY   22  19  89 SE10      29.94F WCI  11
ALLIANCE       CLOUDY    24  21  88 S17       29.94F WCI  11
CHADRON        MOSUNNY   27  20  75 S7        29.96F WCI  19
SIDNEY         CLOUDY    22  20  92 S13       29.96F FOG     WCI  10
$$

NEZ057>060-069>072-079>082-172200-
SOUTHWEST NEBRASKA

CITY           SKY/WX    TMP DP  RH WIND       PRES   REMARKS
NORTH PLATTE   CLOUDY    22  20  92 SE8       30.08F FOG     WCI  12
IMPERIAL       CLOUDY    23  20  88 SE9       30.04F FOG     WCI  13
MCCOOK         CLOUDY    23  21  92 E9        30.09F FOG     WCI  13
$$

NEZ005>010-023>029-035>040-094-172200-
NORTH CENTRAL NEBRASKA

CITY           SKY/WX    TMP DP  RH WIND       PRES   REMARKS
VALENTINE      CLOUDY    22  19  89 S13       30.09F WCI  10
BROKEN BOW     CLOUDY    22  20  92 SE7       30.12F FOG     WCI  13
ORD            CLOUDY    21  18  88 S9        30.16F WCI  11
$$

NEZ041-046>049-061>064-073>077-083>087-172200-
SOUTH CENTRAL NEBRASKA

CITY           SKY/WX    TMP DP  RH WIND       PRES   REMARKS
GRAND ISLAND   CLOUDY    25  19  78 SE7       30.19F WCI  17
HASTINGS       CLOUDY    25  19  78 SE7       30.16F WCI  17
KEARNEY *      CLOUDY    25  19  80 E6        30.15F WCI  18
$$

NEZ011>018-030>034-042>045-172200-
NORTHEAST NEBRASKA

CITY           SKY/WX    TMP DP  RH WIND       PRES   REMARKS
NORFOLK        MOSUNNY   26  14  60 E3        30.21F
BLAIR          PTSUNNY   28  16  63 NE5       30.24F WCI  22
COLUMBUS *     CLOUDY    25  12  58 E5        30.25S WCI  19
TEKAMAH        MOSUNNY   26  15  63 E6        30.27F WCI  19
$$

NEZ050>053-065>068-078-088>093-172200-
SOUTHEAST NEBRASKA

CITY           SKY/WX    TMP DP  RH WIND       PRES   REMARKS
LINCOLN        CLOUDY    26  16  65 CALM      30.26F
OMAHA EPPLEY   PTSUNNY   28  16  60 CALM      30.28F
FALLS CITY     CLOUDY    28  18  66 E7        30.25F WCI  21
$$

NEZ044-045-051>053-067-172200-
OMAHA AREA

CITY           SKY/WX    TMP DP  RH WIND       PRES   REMARKS
OMAHA EPPLEY   PTSUNNY   28  16  60 CALM      30.28F
BLAIR          PTSUNNY   28  16  63 NE5       30.24F WCI  22
OFFUTT AFB     CLOUDY    26  16  63 E1        30.26F
$$


USA.gov is the U.S. government's official web portal to all federal, state and local government web resources and services.